Flag for Germany Weather past 2 weeks in Lörrach, Baden-Württemberg, Germany

Now
45 °F

Clear.


Feels Like: 39 °F
Forecast: 37 / 47 °F
Wind: 10 mph from West

Location: Bale-Mulhouse

Current Time: Apr 1, 2015 at 11:48:51 PM

Latest Report: Apr 1, 2015 at 11:00 PM


Visibility: 10 mi

Pressure: 30.30 "Hg

Humidity: 57%

Dew point: 30 °F

Location of LörrachLocation

Historic Weather in Lörrach — Graph

°F

Lörrach temperature yesterday

Maximum temperature yesterday: 57 °F (at 5:00 AM)
Minimum temperature yesterday: 50 °F (at 12:00 AM)
Average temperature yesterday: 54 °F

Past Weeks' High & Low Weather Summary

 TemperatureHumidityPressure
High64 °F (Mar 18, 3:07 PM)100% (Mar 19, 3:30 AM)30.30 "Hg (Mar 19, 3:30 AM)
Low30 °F (Mar 24, 6:30 AM)39% (Mar 20, 2:30 PM)29.62 "Hg (Mar 25, 6:00 AM)
Average47 °F73%30.00 "Hg
* Reported Mar 17 9:00 PM — Apr 1 10:30 PM, Lörrach, Weather by CustomWeather, © 2015

Note: Actual official high and low records may vary slightly from our data, if they occured in-between our weather recording intervals... More about our weather records

Advertising

Lörrach weather history for previous 24 hours

 ConditionsComfort  
Time TempWeatherWind HumidityBarometerVisibility
10:30 PM
Wed, Apr 1
43 °FClear.9 mph61%30.30 "Hg10 mi
10:00 PM43 °FClear.10 mph66%30.30 "Hg10 mi
9:30 PM43 °FClear.9 mph61%30.30 "Hg10 mi
9:00 PM45 °FClear.8 mph57%30.30 "Hg10 mi
8:30 PM45 °FPartly sunny.10 mph53%30.27 "HgN/A
8:00 PM45 °FBroken clouds.12 mph53%30.27 "HgN/A
7:30 PM45 °FBroken clouds.12 mph53%30.27 "HgN/A
7:00 PM45 °FScattered clouds.8 mph61%30.27 "HgN/A
6:30 PM46 °FBroken clouds.14 mph57%30.27 "HgN/A
6:00 PM46 °FBroken clouds.18 mph57%30.27 "HgN/A
5:30 PM48 °FBroken clouds.15 mph58%30.24 "HgN/A
5:00 PM48 °FScattered clouds.17 mph50%30.24 "HgN/A
4:30 PM46 °FBroken clouds.13 mph66%30.24 "HgN/A
4:00 PM48 °FScattered clouds.18 mph58%30.24 "HgN/A
3:30 PM46 °FScattered clouds.18 mph71%30.24 "HgN/A
3:00 PM41 °FSprinkles. Partly sunny.17 mph81%30.27 "HgN/A
2:30 PM45 °FSprinkles. Broken clouds.23 mph71%30.24 "HgN/A
2:00 PM46 °FScattered clouds.14 mph71%30.24 "HgN/A
1:30 PM43 °FBroken clouds.15 mph81%30.24 "HgN/A
1:00 PM43 °FSprinkles. Broken clouds.10 mph76%30.24 "HgN/A
12:30 PM45 °FBroken clouds.10 mph76%30.24 "HgN/A
12:00 PM43 °FScattered clouds.8 mph93%30.24 "HgN/A
11:30 AM37 °FRain showers. Broken clouds.13 mph87%30.24 "Hg4 mi
11:00 AM39 °FBroken clouds.10 mph93%30.21 "HgN/A
10:30 AM39 °FHail. Broken clouds.9 mph87%30.21 "HgN/A
10:00 AM43 °FSprinkles. Broken clouds.15 mph76%30.21 "HgN/A
9:30 AM43 °FSprinkles. Broken clouds.13 mph76%30.21 "HgN/A
9:00 AM43 °FBroken clouds.13 mph76%30.18 "HgN/A
8:30 AM43 °FBroken clouds.13 mph71%30.18 "HgN/A
8:00 AM43 °FSprinkles. Partly cloudy.13 mph76%30.18 "HgN/A
7:30 AM43 °FSprinkles. Partly cloudy.14 mph76%30.15 "HgN/A
7:00 AM43 °FPartly cloudy.15 mph76%30.15 "HgN/A
6:30 AM41 °FPartly cloudy.10 mph81%30.12 "HgN/A
6:00 AM39 °FRain showers. Partly cloudy.20 mph81%30.12 "Hg2 mi
5:30 AM45 °FPartly cloudy.12 mph66%30.12 "HgN/A
5:00 AM43 °FPassing clouds.10 mph71%30.12 "HgN/A
4:30 AM43 °FPassing clouds.13 mph76%30.12 "HgN/A
4:00 AM41 °FLight rain. Passing clouds.23 mph87%30.12 "HgN/A
3:30 AM43 °FPassing clouds.9 mph76%30.09 "HgN/A
3:00 AM43 °FPartly cloudy.14 mph76%30.09 "HgN/A
2:30 AM45 °FPartly cloudy.18 mph76%30.09 "HgN/A
2:00 AM43 °FLight rain. Fog.28 mph81%30.09 "Hg1 mi
1:30 AM45 °FLight rain. Passing clouds.20 mph76%30.09 "HgN/A
1:00 AM46 °FLight rain. Passing clouds.22 mph71%30.09 "HgN/A
12:30 AM48 °FPassing clouds.18 mph58%30.04 "HgN/A
12:00 AM48 °FPassing clouds.15 mph58%30.07 "HgN/A
11:30 PM
Tue, Mar 31
50 °FPassing clouds.17 mph54%30.04 "HgN/A
11:00 PM50 °FPassing clouds.16 mph54%30.04 "HgN/A
Weather by CustomWeather, © 2015

See weather overviewHow to use our weather pages